W9LRT-WX Weather Reports


time (UTC)temp
C
wind
direction
speed
KPH
gust
KPH
rain 1hr
cm
rain 24hr
cm
rain mn
cm
humidity
%
barometer
mb
20260504235055 22 0 17.7 41.8 0.00 0.00 0.00 59 999.1
20260504233555 22 0 19.3 37.0 0.00 0.00 0.00 59 998.9
20260504232055 21 0 22.5 49.9 0.00 0.00 0.00 61 998.8
20260504230555 22 0 22.5 59.5 0.00 0.00 0.00 60 998.9
20260504225056 22 0 24.1 59.5 0.00 0.00 0.00 59 999.2
20260504223554 22 0 27.4 59.5 0.00 0.00 0.00 58 999.3
20260504222055 23 207 27.4 59.5 0.00 0.00 0.00 53 999.2
20260504220555 23 0 24.1 59.5 0.00 0.00 0.00 51 999.4
20260504215056 23 0 27.4 59.5 0.00 0.00 0.00 51 999.4
20260504213556 24 0 22.5 59.5 0.00 0.00 0.00 48 999.3
20260504212052 24 184 27.4 59.5 0.00 0.00 0.00 48 999.4
20260504210553 25 0 20.9 51.5 0.00 0.00 0.00 48 999.3
20260504205052 25 0 24.1 51.5 0.00 0.00 0.00 47 999.3
20260504203553 25 0 20.9 51.5 0.00 0.00 0.00 48 999.1
20260504202052 25 0 24.1 51.5 0.00 0.00 0.00 46 999.1
20260504200553 25 0 25.7 51.5 0.00 0.00 0.00 47 999.2
20260504195053 24 0 19.3 51.5 0.00 0.00 0.00 48 999.4
20260504193554 24 0 20.9 51.5 0.00 0.00 0.00 48 999.6
20260504192052 24 0 14.5 51.5 0.00 0.00 0.00 51 999.6
20260504190553 23 0 24.1 51.5 0.00 0.00 0.00 53 999.9
20260504185050 23 0 20.9 45.1 0.00 0.00 0.00 53 1000.1
20260504183550 23 0 22.5 45.1 0.00 0.00 0.00 56 1000.4
20260504182048 23 0 19.3 45.1 0.00 0.00 0.00 55 1000.7
20260504180549 22 0 19.3 45.1 0.00 0.00 0.00 59 1000.9
20260504175048 22 0 19.3 45.1 0.00 0.00 0.00 58 1001.2
20260504173548 22 0 22.5 45.1 0.00 0.00 0.00 58 1001.3
20260504172048 22 0 20.9 43.5 0.00 0.00 0.00 56 1001.4
20260504170545 21 0 20.9 40.2 0.00 0.00 0.00 57 1001.5
20260504150537 18 0 12.9 25.7 0.00 0.00 0.00 60 1003.2
20260504140535 16 0 11.3 22.5 0.00 0.00 0.00 68 1003.7
20260504130529 13 0 12.9 22.5 0.00 0.00 0.00 75 1004.1
20260504110529 10 0 11.3 19.3 0.00 0.00 0.00 79 1004.3
20260504100529 10 0 9.7 24.1 0.00 0.00 0.00 79 1004.1
20260504080531 10 0 11.3 22.5 0.00 0.00 0.00 77 1004.4
20260504050525 10 178 8.0 12.9 0.00 0.00 0.00 78 1006.5
20260504045025 10 0 6.4 14.5 0.00 0.00 0.00 78 1006.6
20260504043521 10 170 6.4 14.5 0.00 0.00 0.00 78 1006.7
20260504042021 10 178 6.4 12.9 0.00 0.00 0.00 78 1006.8
20260504040522 10 0 8.0 16.1 0.00 0.00 0.00 77 1006.7
20260504035023 10 198 9.7 16.1 0.00 0.00 0.00 77 1006.8
20260504033521 10 0 9.7 19.3 0.00 0.00 0.00 77 1006.9
20260504032021 11 0 9.7 17.7 0.00 0.00 0.00 76 1007.0
20260504030522 11 164 9.7 17.7 0.00 0.00 0.00 76 1007.0
20260504025022 10 0 8.0 19.3 0.00 0.00 0.00 77 1007.1
20260504023521 11 0 8.0 14.5 0.00 0.00 0.00 77 1006.9
20260504022021 10 185 8.0 14.5 0.00 0.00 0.00 78 1007.0
20260504020522 10 0 8.0 16.1 0.00 0.00 0.00 81 1007.1
20260504015023 10 0 6.4 11.3 0.00 0.00 0.00 83 1007.1
20260504013522 10 169 4.8 12.9 0.00 0.00 0.00 83 1007.1
20260504012022 10 0 6.4 12.9 0.00 0.00 0.00 82 1007.2
20260504010522 11 0 8.0 17.7 0.00 0.00 0.00 82 1007.1
20260504005021 11 146 9.7 17.7 0.00 0.00 0.00 82 1007.1
20260504003521 11 119 8.0 17.7 0.00 0.00 0.00 81 1007.1
20260504002017 11 0 11.3 22.5 0.00 0.00 0.00 79 1007.1
20260504000516 12 152 12.9 33.8 0.00 0.00 0.00 78 1007.4